Regional Weather Roundup
Issued by NWS State College, PA

Home | Current Version | Previous Version | Graphics & Text | Print | Product List | Glossary Off
Versions: 1 2 3 4 5 6 7 8 9 10 11 12 13 14 15 16 17 18 19 20 21 22 23 24 25 26 27 28 29 30 31 32 33 34 35 36 37 38 39 40 41 42 43 44 45 46 47 48 49 50

000
ASUS41 KCTP 270503
RWRCTP

REGIONAL WEATHER ROUNDUP
NATIONAL WEATHER SERVICE STATE COLLEGE PA
100 AM EDT SAT AUG 27 2016

Note: "fair" indicates few or no clouds below 12,000 feet with no
significant weather and/or obstructions to visibility.

* = STATION THAT DOES NOT REPORT PRECIPITATION /E.G. RAIN...SNOW...ETC/
    THUNDER OR FOG.

PAZ002>004-007>009-013>016-020>023-029>032-270600-
WESTERN PENNSYLVANIA

CITY           SKY/WX    TMP DP  RH WIND       PRES   REMARKS
ERIE           CLEAR     66  61  84 CALM      30.18S
MEADVILLE      CLEAR     62  57  83 E3        30.20F
FRANKLIN*        N/A     63  59  88 N5        30.21F
NEW CASTLE     FAIR      63  62  97 CALM      30.19F
BEAVER COUNTY  NOT AVBL
BUTLER*        NOT AVBL
PITTSBURGH INT CLEAR     70  62  76 CALM      30.17F
PITTSBURGH     CLEAR     75  59  57 N3        30.17F
INDIANA*       CLEAR     64  64 100 CALM      30.22S
LATROBE        CLEAR     66  66 100 CALM      30.19S
WASHINGTON CO* CLEAR     64  63  94 CALM      30.18F
$$

PAZ004>006-010>012-017>019-024>028-033>037-041-042-045-046-049>053-270600-
CENTRAL PENNSYLVANIA

CITY           SKY/WX    TMP DP  RH WIND       PRES   REMARKS
BRADFORD       CLEAR     57  57 100 CALM      30.23S
DUBOIS         CLEAR     66  60  81 N6        30.21F
CLEARFIELD     CLEAR     66  64  93 CALM      30.21S
JOHNSTOWN      CLEAR     68  61  78 CALM      30.23S
ALTOONA        CLEAR     63  62  97 CALM      30.20S
STATE COLLEGE  PTCLDY    69  64  83 CALM      30.18S
WILLIAMSPORT   CLEAR     69  64  84 CALM      30.15R
SELINSGROVE    CLEAR     66  66 100 CALM      30.14S
FT INDIANTOWN  CLEAR     67  66  96 CALM      30.12S
CAPITAL CITY   CLEAR     72  66  81 CALM      30.11S
HARRISBURG     CLEAR     74  71  91 N3        30.11R
YORK           CLEAR     66  64  93 CALM      30.12S
$$

PAZ038>040-043-044-047-048-054-055-060>062-067>071-270600-
EASTERN PENNSYLVANIA

CITY           SKY/WX    TMP DP  RH WIND       PRES   REMARKS
SCRANTON       CLEAR     68  62  81 E7        30.16R
MOUNT POCONO   CLEAR     65  59  81 NW6       30.19R
ALLENTOWN      CLEAR     71  63  75 CALM      30.12R
QUAKERTOWN*    CLEAR     66  63  88 CALM      30.13R
READING        CLEAR     71  66  84 CALM      30.11R
LANCASTER      CLEAR     74  66  76 CALM      30.11S
COATESVILLE    CLEAR     75  63  64 CALM      30.14R
POTTSTOWN      CLEAR     70  65  84 CALM      30.13R
BLUE BELL      CLEAR     64  63  94 CALM      30.10R
DOYLESTOWN     CLEAR     76  64  66 NE3       30.10R
WILLOW GROVE   NOT AVBL
NORTH PHILA    CLEAR     74  65  73 NW3       30.11R
PHILADELPHIA   CLEAR     80  65  59 NW3       30.10R
$$




USA.gov is the U.S. government's official web portal to all federal, state and local government web resources and services.